This is the latest recevied weather packets stored in our database for station/object F4IDZ-11. If no packets are shown the sender has not sent any weather packets the latest 10 day(s).
| Time | Temp. | Humidity | Pressure | Rain* | Wind** | Luminosity | Snow |
|---|---|---|---|---|---|---|---|
| 1777630062 | 20° C | 46% | 1000.4 hPa | - | - | - | - |
| 1777629162 | 19.44° C | 46% | 1000.4 hPa | - | - | - | - |
| 1777628262 | 18.89° C | 46% | 1000.3 hPa | - | - | - | - |
| 1777627362 | 18.33° C | 46% | 1000.3 hPa | - | - | - | - |
| 1777626462 | 17.78° C | 46% | 1000.2 hPa | - | - | - | - |
| 1777625561 | 17.78° C | 47% | 1000.1 hPa | - | - | - | - |
| 1777624661 | 17.22° C | 47% | 1000 hPa | - | - | - | - |
| 1777623761 | 17.22° C | 47% | 999.9 hPa | - | - | - | - |
| 1777622861 | 16.67° C | 47% | 999.9 hPa | - | - | - | - |
| 1777621961 | 16.67° C | 47% | 999.9 hPa | - | - | - | - |
| 1777621061 | 16.11° C | 47% | 999.9 hPa | - | - | - | - |
| 1777620160 | 16.11° C | 47% | 999.8 hPa | - | - | - | - |
| 1777619260 | 16.11° C | 47% | 999.7 hPa | - | - | - | - |
| 1777618360 | 15.56° C | 47% | 999.6 hPa | - | - | - | - |
| 1777617460 | 15.56° C | 47% | 999.5 hPa | - | - | - | - |
| 1777616560 | 15.56° C | 47% | 999.5 hPa | - | - | - | - |
| 1777615660 | 15.56° C | 46% | 999.5 hPa | - | - | - | - |
| 1777614759 | 15.56° C | 47% | 999.3 hPa | - | - | - | - |
| 1777613859 | 15.56° C | 47% | 999.3 hPa | - | - | - | - |
| 1777612959 | 15.56° C | 47% | 999 hPa | - | - | - | - |
| 1777612059 | 15.56° C | 46% | 998.8 hPa | - | - | - | - |
| 1777611159 | 15.56° C | 46% | 998.6 hPa | - | - | - | - |
| 1777610259 | 15.56° C | 46% | 998.4 hPa | - | - | - | - |
| 1777609358 | 16.11° C | 46% | 998.3 hPa | - | - | - | - |
| 1777608458 | 16.11° C | 46% | 998.4 hPa | - | - | - | - |
* Rain since midnight (hover to see other rain measurements)
** Current wind speed in m/s (hover to see current wind gust speed)